STARLINK-5053 (53913 NORAD) Tracking and Keplerian Element Data

This shows tracking and keplerian element data for the satellite.

Feedback or suggestion? Click here.




ElementValue
Catalog53913
NameSTARLINK-5053
Epoch Orbit945
Epoch Day325.25001157
Epoch Year2022
RAAN329.4987
Inclination53.2143
Eccentricity0.0004274
Argument of Perigee3.2554
Mean Anonmoly100.3687
Mean Motion15.73197692
Decay Rate0.0002404
L11 53913U 22119AD 22325.25001157 .00024040 00000+0 17518-3 0 9995
L22 53913 53.2143 329.4987 0004274 3.2554 100.3687 15.73197692 9452



Live tracking and technical data element details for STARLINK-5053 (NORAD 53913). STARLINK-5053 can be tracked NOW for your location showing map with azimuth and elevation plus other details from your city location.







IsCatalogInMostPopularTable: catalog: 53913, numindb: 1
Update: records affected: 1



GetName: 53913 STARLINK-5053

Hit Count: updated at: Mon, 28 Nov 2022 22:42:26 GMT